TimeEST,TemperatureF,Dew PointF,Humidity,Sea Level PressureIn,VisibilityMPH,Wind Direction,Wind SpeedMPH,Gust SpeedMPH,PrecipitationIn,Events,Conditions,WindDirDegrees,DateUTC
12:15 AM,44.6,44.6,100,29.76,2.5,North,8.1,-,N/A,,Overcast,350,2013-02-24 05:15:00
1:26 AM,44.6,44.6,100,29.77,2.0,North,8.1,-,N/A,,Overcast,10,2013-02-24 06:26:00
1:39 AM,44.6,44.6,100,29.77,4.0,North,9.2,-,N/A,,Overcast,10,2013-02-24 06:39:00
1:53 AM,43.0,43.0,100,29.77,2.5,North,9.2,-,N/A,,Overcast,360,2013-02-24 06:53:00
2:08 AM,42.8,42.8,100,29.77,7.0,North,6.9,-,N/A,,Overcast,10,2013-02-24 07:08:00
2:53 AM,42.1,42.1,100,29.76,7.0,North,10.4,-,N/A,,Overcast,10,2013-02-24 07:53:00
3:53 AM,41.0,41.0,100,29.78,5.0,NNW,6.9,-,N/A,,Overcast,340,2013-02-24 08:53:00
4:53 AM,41.0,41.0,100,29.78,3.0,North,8.1,-,N/A,,Overcast,10,2013-02-24 09:53:00
5:17 AM,39.2,39.2,100,29.76,2.5,North,6.9,-,N/A,,Overcast,360,2013-02-24 10:17:00
5:26 AM,39.2,39.2,100,29.76,3.0,North,4.6,-,N/A,,Overcast,360,2013-02-24 10:26:00
5:32 AM,39.2,39.2,100,29.77,2.5,NNW,5.8,-,N/A,,Overcast,340,2013-02-24 10:32:00
5:53 AM,39.9,39.9,100,29.77,2.0,North,5.8,-,N/A,,Overcast,350,2013-02-24 10:53:00
6:28 AM,39.2,39.2,100,29.79,4.0,North,5.8,-,N/A,,Overcast,350,2013-02-24 11:28:00
6:53 AM,39.9,39.9,100,29.80,3.0,NNW,8.1,-,N/A,,Overcast,340,2013-02-24 11:53:00
7:01 AM,39.2,39.2,100,29.80,2.0,NNW,5.8,-,N/A,,Overcast,340,2013-02-24 12:01:00
7:13 AM,39.2,39.2,100,29.82,1.5,NNW,4.6,-,N/A,,Overcast,330,2013-02-24 12:13:00
7:51 AM,39.2,39.2,100,29.85,2.0,NW,6.9,16.1,N/A,,Overcast,320,2013-02-24 12:51:00
7:53 AM,39.9,39.9,100,29.86,2.0,NW,6.9,16.1,N/A,,Overcast,320,2013-02-24 12:53:00
8:04 AM,39.2,39.2,100,29.85,1.8,NW,6.9,-,N/A,,Overcast,320,2013-02-24 13:04:00
8:24 AM,41.0,41.0,100,29.85,2.0,NNW,10.4,-,N/A,,Overcast,330,2013-02-24 13:24:00
8:53 AM,41.0,41.0,100,29.85,2.5,NNW,5.8,-,N/A,,Overcast,340,2013-02-24 13:53:00
9:45 AM,41.0,41.0,100,29.85,3.0,NNW,10.4,-,0.00,,Overcast,330,2013-02-24 14:45:00
9:53 AM,42.1,41.0,96,29.85,4.0,NNW,11.5,17.3,0.00,,Overcast,330,2013-02-24 14:53:00
10:02 AM,42.8,41.0,93,29.85,4.0,NW,6.9,17.3,N/A,,Overcast,310,2013-02-24 15:02:00
10:53 AM,44.1,42.1,93,29.86,6.0,NNW,10.4,16.1,N/A,,Overcast,340,2013-02-24 15:53:00
11:19 AM,46.4,42.8,87,29.85,7.0,NW,11.5,17.3,N/A,,Scattered Clouds,310,2013-02-24 16:19:00